Location: Maynard F. Jordan Observatory
(44.9000°N, 68.6700°W)
Time: 03:13:58
(UTC-05:00)

Cosmos 2297 Rocket - Visible Passes

Search period start: 17 December 2017 00:00
Search period end: 27 December 2017 00:00
Orbit: 840 x 843 km, 71.0° (Epoch: 16 December)

Date Brightness Start Highest point End Pass type
(mag) Time Alt. Az. Time Alt. Az. Time Alt. Az.
17 Dec 2.8 17:23:14 10° NNW 17:28:47 59° WSW 17:34:19 10° S visible
18 Dec 2.8 17:08:06 10° NNW 17:13:42 62° WSW 17:19:15 10° S visible
19 Dec 4.4 06:18:03 10° SSE 06:22:52 30° ESE 06:27:42 10° NE visible
19 Dec 2.7 16:52:59 10° NNW 16:58:36 65° WSW 17:04:11 10° SSE visible
20 Dec 4.5 06:03:04 10° SSE 06:07:48 28° ESE 06:12:32 10° NE visible
20 Dec 2.6 16:37:52 10° NNW 16:43:31 69° WSW 16:49:07 10° SSE visible
21 Dec 4.5 05:48:05 10° SSE 05:52:43 27° ESE 05:57:22 10° NE visible
21 Dec 2.6 16:22:45 10° NNW 16:28:25 73° WSW 16:34:02 10° SSE visible
22 Dec 4.6 05:33:06 10° SSE 05:37:39 26° ESE 05:42:12 10° NE visible
22 Dec 5.7 17:55:12 10° W 17:56:20 11° W 17:57:28 10° WSW visible
23 Dec 4.6 05:18:09 10° SSE 05:22:35 24° ESE 05:27:01 10° NE visible
23 Dec 5.6 17:39:36 10° WNW 17:41:17 11° W 17:42:58 10° WSW visible
24 Dec 4.7 05:03:11 10° SSE 05:07:31 23° E 05:11:50 10° NE visible
24 Dec 5.5 17:24:08 10° WNW 17:26:14 12° W 17:28:19 10° WSW visible
25 Dec 4.7 04:48:15 10° SSE 04:52:27 22° E 04:56:39 10° NE visible
25 Dec 2.3 06:30:26 10° SW 06:36:00 59° WNW 06:41:37 10° NNE visible
25 Dec 5.4 17:08:45 10° WNW 17:11:11 13° W 17:13:36 10° WSW visible
26 Dec 4.7 04:33:19 10° SSE 04:37:23 21° E 04:41:27 10° NE visible
26 Dec 2.2 06:15:18 10° SW 06:20:54 62° WNW 06:26:32 10° NNE visible
26 Dec 5.3 16:53:25 10° WNW 16:56:07 14° W 16:58:50 10° SW visible
